This demonstration page uses our WeatherBlox Daily Observations layout. Learn more.

Left ArrowRight Arrow

39.92423, -83.80882

Hourly Observations for May 29, 2020

Temp ( °F °C ) Dew Point ( °F °C ) Humidity (%) Winds ( mph kmh ) Pressure ( in mb ) Visibility ( mi km ) Precip ( " mm )
12:56 am 00:56 Clear 71 21.7 65 18.3 81 81 SSW 6 9 29.92 1013 10 16.0934 0 0
1:56 am 01:56 Mostly Cloudy 70 21.1 65 18.3 84 84 SW 6 9 29.91 1013 10 16.0934 0 0
2:56 am 02:56 Cloudy with Rain 68 20 67 19.4 96 96 WSW 8 13 29.91 1013 10 16.0934 0.001 0.001
3:56 am 03:56 Mostly Cloudy with Light Rain 66 18.9 66 18.9 100 100 SSW 7 11 29.91 1013 9 14.48406 0 0
4:56 am 04:56 Cloudy 66 18.9 66 18.9 100 100 S 7 11 29.89 1012 10 16.0934 0 0
5:56 am 05:56 Mostly Cloudy 65 18.3 65 18.3 100 100 SW 5 7 29.91 1013 10 16.0934 0 0
6:56 am 06:56 Mostly Sunny 66 18.9 66 18.9 100 100 SSW 6 9 29.93 1014 10 16.0934 0 0
7:56 am 07:56 Cloudy 65 18.3 65 18.3 100 100 SSW 8 13 29.95 1014 10 16.0934 0 0
8:56 am 08:56 Cloudy 66 18.9 66 18.9 100 100 SW 10 17 29.95 1014 10 16.0934 0 0
9:56 am 09:56 Cloudy 67 19.4 67 19.4 100 100 SW 12 19 29.94 1014 10 16.0934 0 0
10:20 am 10:20 Cloudy 70 21 68 20 94 94 SW 10 17 29.93 1013 10 16.0934 0 0
10:54 am 10:54 Cloudy 70 21 68 20 94 94 SW 6 9 29.93 1013 10 16.0934 0 0
10:56 am 10:56 Cloudy 70 21.1 69 20.6 97 97 SW 9 15 29.94 1014 10 16.0934 0 0
11:52 am 11:52 Cloudy 72 22 66 19 83 83 SW 13 20 29.91 1013 10 16.0934 0 0
11:56 am 11:56 Cloudy 71 21.7 67 19.4 87 87 SW 13 20 29.93 1014 10 16.0934 0 0
12:56 pm 12:56 Cloudy 75 23.9 67 19.4 76 76 WSW 15 24 29.9 1013 10 16.0934 0 0
1:13 pm 13:13 Cloudy with Thunderstorms 72 22 66 19 83 83 W 12 19 29.88 1012 10 16.0934 0 0
1:20 pm 13:20 Cloudy with Light Thunderstorms 72 22 66 19 83 83 W 18 30 29.89 1012 10 16.0934 0 0
1:28 pm 13:28 Cloudy with Heavy Thunderstorms 64 18 63 17 94 94 WNW 15 24 29.9 1013 2.5 4.02335 0 0
1:35 pm 13:35 Cloudy with Light Thunderstorms 64 18 64 18 100 100 W 10 17 29.89 1012 8 12.87472 0 0
1:56 pm 13:56 Mostly Cloudy with Nearby Thunderstorms 67 19.4 67 19.4 100 100 S 9 15 29.93 1014 10 16.0934 0 0
2:21 pm 14:21 Partly Cloudy with Nearby Thunderstorms 70 21 66 19 88 88 SSW 7 11 29.9 1012 10 16.0934 0 0
2:56 pm 14:56 Partly Cloudy with Nearby Thunderstorms 69 20.6 66 18.9 90 90 SW 9 15 29.91 1013 10 16.0934 0 0
3:21 pm 15:21 Mostly Cloudy with Nearby Thunderstorms 68 20 66 19 94 94 SW 10 17 29.91 1013 10 16.0934 0 0
3:42 pm 15:42 Cloudy with Light Rain 66 19 66 19 100 100 W 20 31 29.93 1013 9 14.48406 0 0
3:53 pm 15:53 Cloudy with Light Rain 64 18 64 18 100 100 WNW 15 24 29.94 1014 10 16.0934 0 0
3:56 pm 15:56 Cloudy with Light Rain 65 18.3 65 18.3 100 100 WNW 14 22 29.95 1014 10 16.0934 0 0
4:56 pm 16:56 Cloudy with Light Rain 64 17.8 64 17.8 100 100 NW 9 15 29.95 1014 10 16.0934 0 0
5:23 pm 17:23 Cloudy 64 18 64 18 100 100 NW 8 13 29.93 1014 10 16.0934 0 0
5:56 pm 17:56 Mostly Cloudy 66 18.9 66 18.9 100 100 NW 10 17 29.95 1014 10 16.0934 0 0
6:34 pm 18:34 Cloudy 66 19 66 19 100 100 NW 8 13 29.95 1014 10 16.0934 0 0
6:56 pm 18:56 Cloudy 67 19.4 66 18.9 97 97 NW 8 13 29.97 1015 10 16.0934 0 0
7:56 pm 19:56 Mostly Sunny 67 19.4 58 14.4 73 73 NNW 7 11 30 1016 10 16.0934 0 0
8:56 pm 20:56 Clear 65 18.3 59 15 81 81 Calm 30.01 1016 10 16.0934 0 0
9:56 pm 21:56 Clear 61 16.1 61 16.1 100 100 SW 3 6 30.03 1017 10 16.0934 0 0
10:56 pm 22:56 Clear 59 15 59 15 100 100 SE 3 6 30.03 1017 10 16.0934 0 0
11:56 pm 23:56 Clear 58 14.4 58 14.4 100 100 Calm 30.04 1017 10 16.0934 0 0

Powered by AerisWeather